Location: Csohesd
(46.2500°N, 22.6167°E)
Time: 13:33:35
(UTC+00:00)

USA 229 - Pass Details

Date: 21 October 2021
Orbit: 946 x 1266 km, 63.4° (Epoch: 25 November)

Event Time Altitude Azimuth Distance (km) Brightness Sun altitude
Rises 17:49:32 0° 210° (SSW) 3,625 6.7 -24.3°
Reaches altitude 10° 17:52:01 10° 209° (SSW) 2,703 6.0 -24.8°
Maximum altitude 17:58:19 75° 125° (SE) 1,046 3.4 -25.8°
Enters shadow 18:00:09 50° 54° (NE) 1,287 3.8 -26.1°
